User: anonymous   Login
Location: Banska Bystrica
(0.0000°N, 19.1500°E)
Time: 02:01:37
(UTC+02:00)
Language:

ARIANE 5 R/B - Orbit

View from above orbital plane
View from above orbital plane
View from above satellite
View from above satellite

Ground track
Ground track

The orbit data is extracted from the following two-line orbital elements,

1 37777U 11041C   19113.04799345  .00002034  00000-0  61755-3 0  9990
2 37777   2.2353 359.5167 7180582  71.6921 349.2127  2.40702844 66372
Epoch (UTC): 23 April 2019 01:09:06
Eccentricity: 0.7180582
inclination: 2.2353°
perigee height: 253 km
apogee height: 34028 km
right ascension of ascending node: 359.5167°
argument of perigee: 71.6921°
revolutions per day: 2.40702844
mean anomaly at epoch: 349.2127°
orbit number at epoch: 6637

The dashed part of the orbit path shows where the satellite is in the earth's shadow,  

DLR